COSMOS 1275 DEB, 12671

Orbit data source: Space-Track

COSMOS 1275 DEB, 12671 is space debris in LEO originally from a launch on Thu, 04 Jun 1981 UTC launched from the Plesetsk Missile And Space Complex (PKMTR). Debris objects in space refer to the collection of defunct objects orbiting the Earth. Examples of debris include non-operational satellites, rocket bodies, and fragments generated from explosions, collisions, or faulty payload assembly.

Loading next visibility...
Identifier
12671, 1981-053AB
Orbit
LEO
Last TLE update
3 hours ago
Origin
Manufacturer
Unknown
Mission
Spacecraft
Bus & Motor
Unknown
Mass
Unknown
Launch date (UTC)
1981-06-04 (44 years ago)
Launch vehicle
Unknown
Launch site
Plesetsk Missile And Space Complex (PKMTR)
Object type
Payload
Rocket body
Debris
Shape & HBR
Unknown
Radar Cross Section
Small (<0.1 m²)

Expand to show TLE details & history

TLE from 3 hours ago
0 COSMOS 1275 DEB
1 12671U 81053AB  25182.22741343  .00001864  00000-0  10395-2 0  9997
2 12671  82.9065 106.8541 0016415 220.7312 139.2637 14.10399378230616
Epoch: 2025-07-01T05:27Z
TLE epoch observation values (Epoch: 2025-07-01T05:27:28.52Z)
Latitude
-0.00006°
Longitude
105.45937°
Altitude
869.964 km
Speed
7.413 km/s
True Right ascension
07h 07m 24s
True Declination
0° 00' 00"
Sunlit
Object was in daylight at epoch
Visualization orbit readout
Latitude
10.3969°
Longitude
106.6471°
Altitude
870.51 km
Speed
7.413 km/s
Apparent Right ascension
07h 44m 59s
Apparent Declination
-13° 09' 33"
Sunlit
Object is in daylight
Visualization observer readout
Local Sidereal Time
20:32:57
Azimuth
24.862° NE
Elevation
-61.238°
Doppler factor
1
Orbital elements
Apogee altitude
866.98 km
Perigee altitude
843.233 km
Semi-major axis
7,233.244 km
Eccentricity
0.00164
Inclination
82.9065°
RAAN
106.8541°
Arg. of periapsis
220.7312°
True anomaly
Unknown
Mean anomaly
139.2637°
Eccentric anomaly
Unknown
Mean motion
3.52812 °/min
Orbital period
102.04 mins
BSTAR
0.0010395
Loading maneuver chart data...
Loading SW <> Apogee altitude chart data...
Loading historical data...
Loading historical data...
Loading historical data...
Loading historical data...
Loading historical data...
Loading historical data...
Loading historical data...

COSMOS 1275 DEB Visibility forecast

Observer location: undefined°, undefined°

Span
Click to sort rows by Start time (UTC) header in descending order
Start Az.
Max El. time (UTC)
Max El. Az.
Max El.
End time (UTC)
End Az.
10 mins2025-07-01 19:10:45.310Z161.744° S2025-07-01 19:15:45.310Z100.409° ESE35.373°2025-07-01 19:20:45.310Z22.251° NNE
6 mins2025-07-01 20:56:45.310Z254.739° W2025-07-01 20:58:45.310Z281.966° WNW21.084°2025-07-01 21:02:45.310Z333.096° NNW
7 mins2025-07-02 05:53:45.310Z30.74° NE2025-07-02 05:56:45.310Z74.089° E23.835°2025-07-02 06:00:45.310Z125.478° SE
9 mins2025-07-02 07:35:45.310Z330.445° NNW2025-07-02 07:39:45.310Z268.044° W31.775°2025-07-02 07:44:45.310Z204.247° SW
|